User: anonymous   Login
Location: Asheville, NC
(35.6000°N, 82.5500°W)
Time: 15:57:15
(UTC-05:00)
Language:

CUTE 1.7 + AOD 2 - Orbit

View from above orbital plane
View from above orbital plane
View from above satellite
View from above satellite

Ground track
Ground track

The orbit data is extracted from the following two-line orbital elements,

1 32785U 08021C   18020.18281083  .00000217  00000-0  29207-4 0  9992
2 32785  97.5536  39.3834 0013518 163.0893 197.0778 14.88048520527160
Epoch (UTC): 20 January 2018 04:23:14
Eccentricity: 0.0013518
inclination: 97.5536°
perigee height: 594 km
apogee height: 613 km
right ascension of ascending node: 39.3834°
argument of perigee: 163.0893°
revolutions per day: 14.88048520
mean anomaly at epoch: 197.0778°
orbit number at epoch: 52716

The dashed part of the orbit path shows where the satellite is in the earth's shadow,  

DLR